THORAD DELTA 1 DEB, 42612

Orbit data source: Space-Track

THORAD DELTA 1 DEB, 42612 is space debris in SSO originally from a launch on Fri, 15 Nov 1974 UTC launched from the Air Force Western Test Range (AFWTR). Debris objects in space refer to the collection of defunct objects orbiting the Earth. Examples of debris include non-operational satellites, rocket bodies, and fragments generated from explosions, collisions, or faulty payload assembly.

Loading next visibility...
Identifier
42612, 1974-089GD
Orbit
SSO
Country
Flag of USUS
Related business
Manufacturer
Unknown
Mission
Spacecraft
Bus & Motor
Unknown
Mass
Unknown
Launch date (UTC)
1974-11-15 (52 years ago)
Launch vehicle
Unknown
Launch site
Air Force Western Test Range (AFWTR)
Object type
Payload
Rocket body
Debris
Shape & HBR
Unknown shape, 0.1 m
Radar Cross Section
Medium (>0.1 m² and <1 m²)

Expand to show TLE details & history
Last TLE update: 5 days ago

TLE from 5 days ago
0 THORAD DELTA 1 DEB
1 42612U 74089GD  26155.22847180  .00000039  00000-0  42384-3 0  9990
2 42612 101.6138 154.8038 0085745  74.8444 286.2103 12.69896925561018
Epoch: 2026-06-04T05:28Z
TLE epoch observation values (Epoch: 2026-06-04T05:28:59.963Z)
Latitude
0.00001°
Longitude
179.87821°
Altitude
1,366.914 km
Speed
7.184 km/s
True Right ascension
10h 19m 12s
True Declination
0° 00' 00"
Sunlit
Object was in daylight at epoch
Visualization orbit readout
Latitude
Unknown
Longitude
Unknown
Altitude
Unknown
Speed
Unknown
Apparent Right ascension
Unknown
Apparent Declination
Unknown
Sunlit
N/A
Visualization observer readout
Local Sidereal Time
19:43:33
Azimuth
Unknown
Elevation
Unknown
Doppler factor
Unknown
Orbital elements
Apogee altitude
1,446.393 km
Perigee altitude
1,313.351 km
Semi-major axis
7,758.009 km
Eccentricity
0.00857
Inclination
101.6138°
RAAN
154.8038°
Arg. of periapsis
74.8444°
True anomaly
285.26401°
Mean anomaly
286.2103°
Eccentric anomaly
285.73743°
Mean motion
3.17627 °/min
Orbital period
113.34 mins
BSTAR
0.00042384
Loading maneuver chart data...
Computing Atmospheric mass density...

Documentation

Showing up to 5 results
|